GW0919 Weather Reports


Display with metric or nautical units.
time (UTC)temp
F
wind
direction
speed
MPH
gust
MPH
rain 1hr
in
rain 24hr
in
rain mn
in
humidity
%
barometer
mb
20260509221538 59 0 0.0 0.0 0.00 0.00 0.00 81 1010.6
20260509220039 60 0 0.0 1.0 0.00 0.00 0.00 78 1010.6
20260509214535 60 0 0.0 1.0 0.00 0.05 0.00 79 1010.5
20260509213032 61 122 0.0 1.0 0.00 0.05 0.00 77 1010.7
20260509211536 62 124 0.0 1.0 0.00 0.05 0.00 78 1010.5
20260509210048 63 0 0.0 2.0 0.00 0.05 0.00 73 1010.4
20260509204535 64 86 0.0 1.0 0.00 0.06 0.00 73 1010.3
20260509203036 64 0 0.0 1.0 0.00 0.06 0.00 74 1010.5
20260509201534 64 0 0.0 1.0 0.00 0.06 0.00 76 1010.5
20260509200045 64 0 0.0 0.0 0.00 0.06 0.00 78 1010.5
20260509194536 64 0 0.0 0.0 0.00 0.06 0.00 78 1010.4
20260509193035 65 0 0.0 0.0 0.00 0.06 0.00 74 1010.2
20260509191535 66 0 0.0 1.0 0.00 0.06 0.00 72 1010.3
20260509190040 67 0 0.0 0.0 0.00 0.06 0.00 72 1010.3
20260509184536 69 0 0.0 1.0 0.00 0.06 0.00 67 1010.4
20260509183035 71 0 0.0 0.0 0.00 0.06 0.00 64 1010.3
20260509181535 73 0 0.0 1.0 0.00 0.06 0.00 60 1010.3
20260509180037 74 70 0.0 1.0 0.00 0.06 0.00 56 1010.1
20260509174536 74 0 0.0 2.0 0.00 0.06 0.00 55 1010.1
20260509173100 75 108 0.0 4.0 0.00 0.06 0.00 51 1010.0
20260509171540 76 102 1.0 4.0 0.00 0.06 0.00 48 1010.2
20260509170040 76 122 2.0 6.0 0.00 0.06 0.00 47 1010.2
20260509164535 76 98 2.0 8.0 0.00 0.06 0.00 48 1010.4
20260509163034 77 135 0.0 4.0 0.00 0.06 0.00 45 1010.4
20260509161540 76 132 1.0 6.0 0.00 0.06 0.00 47 1010.6
20260509160036 76 158 1.0 5.0 0.00 0.06 0.00 45 1010.7
20260509154536 76 92 3.0 8.0 0.00 0.06 0.00 45 1010.8
20260509153036 77 93 1.0 6.0 0.00 0.06 0.00 45 1010.9
20260509151540 76 0 0.0 4.0 0.00 0.06 0.00 47 1011.1
20260509150032 76 91 3.0 6.0 0.00 0.06 0.00 49 1011.3
20260509144535 76 155 0.0 7.0 0.00 0.06 0.00 52 1011.3
20260509143037 75 103 1.0 5.0 0.00 0.06 0.00 49 1011.4
20260509141535 74 0 0.0 8.0 0.00 0.06 0.00 49 1011.5
20260509140035 75 243 0.0 6.0 0.00 0.06 0.00 51 1011.8
20260509134540 74 101 2.0 8.0 0.00 0.06 0.00 50 1011.9
20260509133036 75 102 2.0 10.0 0.00 0.06 0.00 49 1012.1
20260509131542 74 99 2.0 12.0 0.00 0.06 0.00 54 1012.1
20260509130055 74 115 1.0 7.0 0.00 0.06 0.00 54 1012.1
20260509124537 74 122 1.0 6.0 0.00 0.06 0.00 51 1012.1
20260509123107 73 143 2.0 6.0 0.00 0.06 0.00 53 1012.1
20260509121540 73 75 2.0 7.0 0.00 0.06 0.00 55 1012.1
20260509120046 73 84 2.0 8.0 0.00 0.06 0.00 57 1012.4
20260509114541 72 107 2.0 7.0 0.00 0.06 0.00 54 1012.8
20260509113035 72 201 2.0 7.0 0.00 0.06 0.00 53 1012.9
20260509111534 72 0 2.0 6.0 0.00 0.06 0.00 58 1013.0
20260509110037 72 80 1.0 5.0 0.00 0.06 0.00 54 1013.0
20260509104536 71 85 1.0 5.0 0.00 0.06 0.00 55 1012.9
20260509103036 71 198 1.0 7.0 0.00 0.06 0.00 56 1013.0
20260509101551 70 153 2.0 5.0 0.00 0.06 0.00 56 1013.2
20260509100035 70 216 1.0 4.0 0.00 0.06 0.00 59 1013.3
20260509094536 69 230 1.0 4.0 0.00 0.06 0.00 62 1013.5
20260509093037 69 142 1.0 5.0 0.00 0.06 0.00 64 1013.5
20260509091542 68 129 0.0 4.0 0.00 0.06 0.00 64 1013.7
20260509090038 67 169 0.0 3.0 0.00 0.06 0.00 68 1013.7
20260509084535 66 126 1.0 3.0 0.00 0.06 0.00 67 1013.9
20260509083035 65 152 1.0 5.0 0.00 0.06 0.00 74 1013.9
20260509081536 65 93 1.0 5.0 0.00 0.06 0.00 76 1014.0
20260509080038 64 179 0.0 2.0 0.00 0.06 0.00 78 1014.1
20260509074537 63 0 0.0 4.0 0.00 0.06 0.00 81 1014.1
20260509073034 62 145 2.0 4.0 0.00 0.06 0.00 81 1014.1
20260509071530 61 185 1.0 4.0 0.00 0.06 0.00 84 1014.0
20260509070037 60 102 0.0 3.0 0.00 0.06 0.00 86 1013.9
20260509064546 59 0 1.0 3.0 0.00 0.06 0.00 88 1014.0
20260509063037 57 120 1.0 4.0 0.00 0.06 0.00 90 1014.2
20260509061543 56 107 0.0 2.0 0.00 0.06 0.00 93 1014.3
20260509060031 55 68 0.0 2.0 0.00 0.06 0.00 94 1014.1
20260509054539 54 0 0.0 1.0 0.00 0.06 0.00 96 1013.9
20260509053037 52 0 0.0 1.0 0.00 0.06 0.00 97 1013.7
20260509051535 50 0 0.0 0.0 0.00 0.06 0.00 98 1013.7
20260509050036 48 0 0.0 0.0 0.00 0.05 0.00 98 1013.7
20260509044533 47 0 0.0 0.0 0.00 0.05 0.00 97 1013.7
20260509043035 47 0 0.0 1.0 0.00 0.05 0.00 98 1013.5
20260509041535 47 0 0.0 0.0 0.00 0.05 0.00 97 1013.4
20260509040042 48 0 0.0 1.0 0.00 0.05 0.00 97 1013.2
20260509034539 48 0 0.0 0.0 0.00 0.05 0.00 97 1013.3
20260509033034 49 0 0.0 0.0 0.00 0.05 0.00 97 1013.3
20260509031552 49 0 0.0 0.0 0.00 0.05 0.00 96 1013.4
20260509030036 50 0 0.0 0.0 0.00 0.05 0.00 97 1013.4
20260509024535 51 0 0.0 1.0 0.00 0.05 0.00 97 1013.4
20260509023036 52 0 0.0 1.0 0.00 0.05 0.00 97 1013.4
20260509021538 51 0 0.0 1.0 0.00 0.05 0.00 96 1013.5
20260509020038 52 0 0.0 0.0 0.00 0.05 0.00 96 1013.6
20260509014541 52 0 0.0 0.0 0.00 0.05 0.00 95 1013.5
20260509013036 53 0 0.0 0.0 0.00 0.05 0.00 95 1013.6
20260509011535 53 0 0.0 1.0 0.00 0.05 0.00 95 1013.8
20260509010043 54 0 0.0 1.0 0.00 0.05 0.00 95 1013.9
20260509004536 54 0 0.0 0.0 0.00 0.05 0.00 94 1013.8
20260509003039 55 0 0.0 0.0 0.00 0.05 0.00 94 1013.9
20260509001535 55 0 0.0 0.0 0.00 0.05 0.00 94 1013.9
20260509000034 55 0 0.0 0.0 0.00 0.05 0.00 93 1014.1
20260508234536 56 0 0.0 1.0 0.00 0.05 0.00 93 1014.0
20260508233036 56 0 0.0 2.0 0.00 0.05 0.00 92 1014.0
20260508231536 56 0 0.0 3.0 0.00 0.05 0.00 91 1014.0
20260508230044 57 82 1.0 3.0 0.00 0.05 0.00 88 1014.2
20260508224537 58 0 1.0 3.0 0.00 0.05 0.00 86 1014.2
20260508223037 58 0 0.0 1.0 0.01 0.05 0.00 86 1014.4